Temperature
17 17 17 17 16 16 16 16 16 16 16 16 16 16 16 16 17 17 17 17 17 17 17 17 17 17 17 17 18 18 18 17 17 17 17 17 17 17 17 17 17 16 16
17 17 16 16 16 16 16 16 16 16 16 16 16 16 16 16 16 16 17 17 17 17 17 17 17 17 17 17 17 17 18 17 17 17 17 17 17 17 17 17 17 17 16
17 16 16 16 16 15 15 15 15 15 15 15 16 16 16 16 16 16 16 16 16 17 17 17 17 17 17 17 17 17 17 17 17 17 17 17 17 17 17 17 17 17 17
16 16 16 15 15 15 15 15 15 15 15 15 15 15 15 16 16 16 16 16 16 16 17 17 17 17 17 17 17 17 17 17 17 17 17 17 17 17 17 17 17 17 17
16 16 15 15 15 14 14 14 14 14 14 14 15 15 15 15 16 16 16 16 16 16 16 16 16 16 16 16 17 17 17 17 17 17 17 17 17 17 17 17 17 17 17
16 15 15 15 14 14 14 14 14 14 14 14 14 14 15 15 15 16 16 16 16 16 16 16 16 16 16 16 16 16 17 17 17 17 17 17 17 17 17 17 17 17 17
15 15 15 14 14 13 13 13 13 13 13 13 14 14 15 15 15 15 16 16 16 16 16 16 16 16 16 16 16 16 16 16 17 17 17 17 17 17 17 17 17 17 17
15 14 14 14 13 13 13 13 13 13 13 13 13 13 14 15 15 15 15 15 15 15 15 15 16 16 16 16 16 16 16 16 16 16 17 17 17 17 17 17 17 17 17
14 14 14 13 13 13 13 12 12 12 12 12 12 12 12 13 13 15 15 15 15 15 15 15 15 15 15 15 16 16 16 16 16 16 16 16 17 17 17 17 17 17 17
14 14 13 13 13 13 12 12 12 12 12 12 12 12 12 12 12 13 14 14 14 14 15 15 15 15 15 15 15 16 16 16 16 16 16 16 16 16 16 16 16 16 16
14 13 13 13 13 12 12 12 12 12 12 12 12 12 12 12 12 12 12 14 14 14 14 14 14 15 15 15 15 15 15 15 15 15 16 16 16 16 16 16 16 16 16
13 13 13 13 13 12 12 12 12 11 11 11 11 11 11 11 11 11 11 12 13 14 14 14 14 14 14 15 15 15 15 15 15 15 15 15 15 16 16 16 16 16 16
13 13 13 13 12 12 12 12 11 11 11 11 11 11 11 11 11 11 11 11 12 12 13 13 14 14 14 14 14 14 14 15 15 15 15 15 15 15 15 16 16 16 16
13 13 13 13 12 12 12 12 11 11 11 11 11 11 11 11 11 11 11 11 11 11 12 12 13 13 13 13 14 14 14 14 14 14 15 15 15 15 15 15 15 15 16
13 13 13 12 12 12 12 12 11 11 11 11 11 11 11 11 11 11 11 10 10 10 11 12 12 13 13 13 13 13 13 14 14 14 14 14 15 15 15 15 15 15 15
13 13 13 12 12 12 12 11 11 11 11 11 11 11 11 11 11 11 11 10 10 10 10 11 11 12 12 12 12 13 13 13 13 13 14 14 14 14 14 15 15 15 15
13 13 13 12 12 12 12 11 11 11 11 11 11 11 11 11 11 10 10 10 10 10 10 11 11 11 11 12 12 12 12 13 13 13 13 13 14 14 14 14 14 15 15
13 13 13 12 12 12 12 11 11 11 11 11 11 11 11 11 11 10 10 10 10 10 10 10 11 11 11 11 11 12 12 12 12 13 13 13 13 13 14 14 14 14 14
13 13 13 12 12 12 12 11 11 11 11 11 11 11 11 10 10 10 10 10 10 10 10 10 10 11 11 11 11 11 12 12 12 12 12 12 13 13 13 14 14 14 14
14 13 13 12 12 12 12 12 11 11 11 11 11 10 10 10 10 10 10 10 10 10 10 10 10 10 10 11 11 11 11 11 12 12 12 12 12 13 13 13 13 14 14
14 13 13 12 12 12 12 12 11 11 11 11 11 10 10 10 10 10 10 10 9 9 9 9 9 10 10 10 10 10 10 11 11 11 12 12 12 12 13 13 13 13 14
14 13 13 13 13 12 12 12 11 11 11 11 11 11 10 10 10 10 10 9 9 9 9 9 9 9 10 10 10 10 10 10 10 11 11 12 12 12 12 13 13 13 13
14 14 13 13 13 13 12 12 11 11 11 11 11 10 10 10 10 10 9 9 9 9 9 9 9 9 9 10 10 9 10 10 10 10 10 11 11 12 12 12 13 13 13
15 14 14 13 13 13 12 12 12 11 11 11 11 10 10 10 10 9 9 9 9 9 9 9 9 9 9 9 9 9 9 9 10 10 10 10 11 11 12 12 12 13 13
15 14 14 14 13 13 13 12 12 11 11 11 11 10 10 10 10 9 9 9 9 9 9 9 9 9 9 9 9 9 9 9 9 10 10 10 10 11 11 12 12 12 13
15 14 14 14 13 13 13 12 12 11 11 11 11 11 10 10 10 9 9 9 9 9 9 9 9 9 9 9 9 8 9 8 9 9 10 10 10 10 11 12 12 12 12
Wind_Speed
3 3 3 3 2 2 1 0 1 1 2 3 3 3 3 5 6 5 7 11 15 18 18 19 19 19 20 21 21 21 20 19 19 19 18 18 18 17 17 16 15 15 15
5 4 3 3 3 2 1 1 1 1 1 1 2 2 2 4 5 6 8 11 15 19 20 20 20 21 22 22 22 22 22 21 21 20 20 20 19 19 18 17 17 16 16
7 5 3 2 3 5 4 4 3 2 2 2 3 3 2 3 4 6 9 10 14 18 20 21 21 22 23 23 23 24 24 24 23 23 22 22 21 21 20 20 19 18 18
9 6 3 2 5 6 5 3 3 3 3 3 3 4 3 3 5 6 8 10 13 14 18 21 22 23 23 23 24 25 25 25 25 24 24 24 23 23 22 22 21 20 20
9 7 4 3 5 5 4 3 3 2 3 4 4 3 3 4 4 6 6 9 12 14 15 18 22 24 24 24 25 25 25 26 26 26 25 25 25 24 24 23 23 22 22
8 8 5 4 5 4 4 3 2 2 2 3 4 5 5 5 4 4 5 6 9 12 14 15 16 19 23 25 25 25 26 26 27 27 27 27 26 26 26 25 25 24 24
8 7 4 3 4 4 3 3 2 3 3 3 4 5 5 4 4 3 3 2 4 7 9 11 12 13 14 21 25 26 26 26 27 28 28 28 28 28 28 27 27 26 25
7 6 4 3 3 3 4 4 3 2 3 3 2 3 4 6 5 4 4 3 3 2 3 6 8 9 11 11 15 22 25 26 27 27 28 28 29 29 29 29 28 28 27
6 6 6 4 3 3 2 2 3 3 2 3 2 3 2 3 4 4 4 5 5 3 3 3 4 7 9 10 11 15 20 24 25 26 27 28 29 30 30 30 30 30 29
4 6 6 5 4 2 2 1 2 2 2 2 2 1 2 3 1 4 5 5 6 5 5 4 4 5 7 8 10 14 17 19 22 24 25 26 27 29 30 31 31 31 31
1 3 5 5 4 2 2 1 1 1 1 1 1 1 2 1 1 1 4 5 5 5 5 4 4 5 6 7 8 12 14 16 18 20 23 25 26 27 29 30 31 32 31
1 1 4 4 4 3 2 2 1 1 1 1 1 1 1 1 1 0 2 4 5 5 5 4 4 5 7 7 8 10 12 13 14 16 19 21 24 27 28 29 31 31 32
0 1 2 3 3 3 3 2 2 2 2 2 3 3 3 3 3 3 2 3 4 4 4 4 4 5 7 7 8 9 10 11 12 15 17 19 21 23 26 28 30 30 31
3 3 3 3 3 4 3 3 2 3 3 3 4 4 3 4 3 3 3 2 3 4 3 5 4 4 6 8 9 9 8 9 10 13 15 17 19 21 23 25 28 30 31
3 4 3 3 3 4 4 3 3 4 4 4 5 5 4 4 4 4 4 4 3 4 5 5 4 4 7 8 9 8 8 9 10 11 13 15 16 18 20 22 24 27 29
4 4 3 4 4 4 4 4 4 5 5 5 5 5 5 5 5 4 4 4 4 5 5 4 4 5 5 7 10 9 10 12 12 12 13 15 16 17 19 20 21 23 26
5 5 5 5 5 5 5 4 5 6 6 6 6 6 7 6 5 5 5 4 4 4 6 5 4 4 4 6 7 9 11 11 12 14 15 17 18 19 20 21 21 22 24
6 6 6 5 6 6 6 6 7 6 6 7 7 6 7 6 6 6 5 6 6 6 6 7 5 4 5 6 6 7 7 10 11 14 16 17 18 19 20 21 22 22 24
6 6 6 6 7 7 7 7 7 7 7 7 7 7 8 7 7 6 6 6 6 6 5 5 6 4 4 4 5 6 6 5 9 12 14 16 17 18 20 21 22 22 23
7 7 7 7 7 7 7 7 7 7 7 7 7 7 7 7 8 8 7 7 7 6 5 5 6 5 5 5 3 4 5 4 5 6 8 9 10 13 16 19 21 22 23
7 7 7 7 7 6 7 7 7 7 7 7 7 7 7 9 11 9 7 7 7 6 6 5 6 4 5 4 4 3 4 5 5 4 3 4 4 5 8 13 16 20 22
7 6 7 7 7 7 9 11 8 7 7 7 7 7 8 9 11 12 13 12 10 8 8 7 6 7 7 6 5 4 4 3 4 3 2 4 3 5 5 8 12 16 20
7 7 7 7 8 10 12 13 13 8 8 8 8 7 8 8 9 8 9 11 11 13 13 9 9 10 9 7 6 6 5 5 6 5 2 5 4 5 5 9 13 14 17
7 7 8 8 8 10 13 14 14 9 8 9 9 9 9 9 9 9 8 8 9 9 10 9 9 11 11 9 8 8 8 6 6 5 4 5 5 5 5 6 12 14 15
7 7 7 8 9 10 13 14 13 6 7 10 9 9 9 9 12 13 9 9 9 9 11 13 14 13 15 14 10 5 5 5 6 5 4 4 4 4 4 5 8 12 14
8 8 8 9 9 10 13 14 12 6 8 8 8 8 11 11 12 11 7 7 9 9 8 8 8 9 9 10 12 10 8 7 6 5 5 5 4 3 4 4 4 5 7
Wind_Direction
91 77 62 54 50 41 46 212 225 244 262 270 267 252 245 230 226 223 212 207 206 204 203 204 206 206 205 201 199 197 197 196 193 189 185 183 181 179 177 176 173 171 169
95 80 65 55 33 22 22 4 335 306 294 297 297 281 249 246 235 222 218 221 220 216 215 212 213 213 211 208 206 203 201 200 197 194 192 190 188 186 185 183 182 180 178
94 85 72 45 23 22 25 25 13 26 8 345 326 307 279 262 255 236 224 223 227 225 223 220 218 219 216 214 212 209 206 203 201 199 197 195 194 192 191 189 188 187 186
97 85 74 40 25 35 38 40 36 34 19 358 330 312 306 289 273 258 240 230 228 229 229 227 225 225 223 220 218 215 211 208 204 202 202 200 199 198 197 195 193 192 191
103 95 84 57 46 46 37 33 44 44 13 346 320 313 312 293 278 276 254 238 230 227 225 229 229 228 228 227 223 220 216 213 209 206 206 205 203 202 201 200 198 196 196
115 105 93 66 58 52 32 25 24 21 11 336 330 331 307 297 294 279 266 251 235 228 225 228 231 233 232 232 228 225 221 218 215 211 210 209 208 206 205 204 203 201 200
127 116 104 84 73 63 39 25 24 15 358 359 13 341 327 326 331 321 309 279 249 233 226 225 225 226 231 233 232 230 228 225 220 216 214 212 211 210 208 207 206 205 204
146 138 132 122 99 73 44 35 46 37 355 21 46 20 349 341 341 353 2 10 336 288 246 231 221 223 226 228 233 234 233 231 227 222 219 216 214 212 210 210 209 209 208
164 157 154 143 128 110 79 48 73 84 18 351 46 92 57 317 314 326 350 7 357 349 322 297 251 236 230 229 233 238 237 234 231 228 224 222 219 216 213 212 212 211 210
187 180 169 158 149 136 120 107 114 112 102 6 353 47 165 197 266 319 325 345 352 353 339 328 310 279 253 241 240 242 242 239 235 232 230 226 223 220 217 216 216 215 213
239 190 172 160 153 154 160 147 121 117 137 163 265 329 352 18 102 159 309 328 336 332 329 320 309 299 282 258 249 246 243 242 240 237 235 231 227 225 223 221 220 220 217
334 139 153 156 162 167 186 205 209 211 210 216 218 207 196 249 285 250 273 304 311 308 317 321 318 310 299 281 266 255 245 241 241 242 241 238 233 229 227 226 225 224 221
176 178 153 163 174 193 204 206 220 238 237 238 241 235 220 217 213 205 226 274 291 298 313 315 311 314 313 301 283 274 260 252 247 246 244 242 238 234 231 228 227 226 224
195 190 172 181 199 212 219 209 217 235 232 242 253 246 242 245 224 210 210 233 297 306 307 292 304 300 313 309 297 289 273 266 259 252 248 247 244 239 235 232 228 227 225
188 178 182 196 218 227 230 223 231 245 245 245 250 250 244 250 242 230 214 196 208 274 289 281 289 300 311 305 300 294 281 274 265 259 254 251 248 244 240 235 231 228 226
197 194 211 220 232 238 236 227 238 246 246 252 246 249 251 249 251 247 238 225 203 213 255 264 262 277 296 301 300 293 281 276 269 261 256 253 251 249 244 239 235 233 230
203 209 219 225 231 239 240 234 242 247 246 255 258 250 253 251 249 251 246 242 234 212 249 271 257 273 283 290 297 294 287 276 269 264 258 254 249 247 245 242 239 237 233
212 215 219 223 232 236 235 233 244 248 241 246 252 252 257 259 250 247 244 244 243 231 233 266 276 275 272 277 279 283 282 277 266 266 262 256 252 247 245 243 241 238 236
216 221 219 225 233 238 238 237 235 240 238 239 243 243 251 253 256 253 247 246 246 249 228 241 265 263 270 275 286 289 287 283 278 273 266 260 255 251 248 245 243 240 237
217 223 225 228 232 236 239 240 236 236 239 243 242 241 244 243 247 250 252 246 244 247 242 243 257 265 267 272 273 280 295 292 290 285 271 265 262 260 255 251 246 242 238
223 223 226 234 237 237 238 234 232 233 235 245 249 247 247 249 249 248 249 241 239 240 241 242 251 261 265 270 266 260 274 287 287 267 278 275 267 266 265 259 251 244 239
226 223 228 234 240 243 240 232 224 228 231 237 249 255 259 262 264 264 264 257 238 232 233 236 244 244 252 248 250 255 262 282 290 278 271 285 272 267 262 257 256 248 240
220 225 234 236 242 250 252 247 240 226 231 237 242 251 264 265 264 262 267 270 264 252 236 229 235 242 246 240 237 250 247 244 250 255 262 277 272 266 260 260 259 252 245
219 228 235 238 243 253 253 251 247 235 234 240 240 241 248 260 264 256 258 264 260 260 251 240 233 240 242 239 228 234 243 253 259 254 216 254 264 261 268 261 261 253 249
225 230 236 238 243 255 255 254 247 230 237 246 247 246 244 251 260 260 255 258 265 268 266 252 241 242 245 245 236 233 239 243 263 263 215 222 251 260 264 262 258 255 250
228 233 241 240 240 249 255 254 244 221 236 249 254 252 248 250 258 260 241 241 255 263 267 274 270 264 257 254 245 227 224 230 241 258 229 208 236 233 268 259 249 250 246
Height
1557 1557 1556 1556 1556 1556 1556 1557 1557 1557 1558 1558 1558 1558 1559 1560 1561 1562 1563 1564 1564 1566 1567 1568 1571 1572 1574 1576 1578 1580 1582 1583 1585 1586 1588 1590 1591 1593 1594 1596 1597 1599 1600
1555 1555 1555 1555 1555 1555 1555 1555 1554 1555 1555 1555 1555 1556 1556 1557 1558 1559 1559 1560 1561 1563 1564 1566 1567 1569 1571 1573 1576 1577 1579 1581 1583 1585 1586 1588 1590 1592 1593 1595 1597 1598 1600
1554 1554 1554 1554 1553 1553 1553 1553 1552 1552 1552 1552 1552 1552 1553 1553 1554 1555 1556 1557 1558 1559 1560 1562 1564 1566 1568 1570 1572 1575 1577 1579 1581 1583 1584 1586 1588 1590 1592 1594 1595 1597 1599
1554 1553 1552 1552 1552 1551 1551 1551 1550 1550 1550 1550 1549 1550 1550 1550 1551 1552 1552 1553 1554 1555 1557 1558 1560 1561 1564 1566 1568 1571 1573 1575 1578 1580 1582 1584 1586 1588 1590 1592 1594 1596 1598
1552 1552 1551 1550 1550 1550 1549 1549 1548 1548 1547 1547 1547 1547 1547 1547 1547 1548 1548 1549 1550 1551 1553 1554 1556 1557 1560 1562 1564 1566 1568 1571 1574 1576 1578 1581 1583 1585 1588 1590 1592 1594 1596
1551 1551 1550 1549 1548 1548 1547 1547 1546 1546 1546 1545 1544 1544 1544 1544 1544 1545 1545 1546 1547 1548 1549 1550 1552 1553 1555 1557 1559 1561 1564 1567 1569 1572 1574 1577 1579 1582 1584 1587 1589 1591 1594
1550 1550 1548 1547 1547 1546 1545 1545 1544 1544 1544 1543 1542 1542 1542 1542 1542 1542 1542 1542 1543 1545 1546 1547 1548 1549 1551 1552 1554 1556 1559 1561 1564 1567 1570 1572 1575 1578 1581 1583 1586 1588 1591
1549 1548 1547 1546 1545 1544 1543 1543 1543 1542 1542 1542 1541 1540 1540 1541 1540 1540 1540 1540 1541 1542 1543 1543 1544 1545 1547 1548 1549 1552 1554 1556 1559 1561 1564 1567 1570 1573 1576 1579 1582 1584 1587
1547 1547 1546 1545 1544 1543 1542 1542 1541 1541 1541 1541 1541 1541 1540 1539 1539 1539 1539 1539 1539 1539 1540 1540 1541 1542 1543 1544 1545 1547 1549 1551 1553 1556 1558 1561 1564 1567 1571 1574 1577 1580 1582
1546 1545 1544 1543 1543 1542 1541 1541 1540 1540 1539 1539 1539 1540 1540 1540 1539 1537 1537 1537 1537 1537 1537 1538 1538 1539 1539 1540 1541 1542 1544 1545 1547 1550 1552 1555 1558 1561 1564 1568 1571 1574 1577
1544 1543 1542 1542 1541 1541 1540 1539 1539 1538 1538 1537 1537 1538 1538 1538 1538 1537 1535 1535 1535 1536 1535 1535 1536 1536 1536 1537 1537 1538 1539 1540 1542 1544 1546 1549 1552 1554 1558 1561 1565 1568 1571
1541 1541 1541 1540 1540 1539 1538 1538 1537 1537 1536 1536 1536 1536 1536 1536 1536 1535 1534 1533 1532 1533 1533 1533 1533 1533 1533 1533 1534 1534 1535 1535 1537 1538 1540 1542 1545 1548 1551 1554 1558 1561 1565
1539 1539 1539 1538 1538 1537 1537 1536 1535 1535 1534 1534 1534 1533 1533 1533 1533 1533 1533 1531 1530 1529 1529 1530 1530 1530 1530 1530 1530 1530 1530 1531 1531 1533 1534 1536 1538 1541 1544 1547 1550 1554 1558
1537 1536 1536 1536 1536 1535 1534 1534 1533 1533 1532 1532 1531 1531 1531 1531 1531 1530 1530 1529 1527 1526 1526 1526 1526 1527 1526 1526 1526 1526 1526 1526 1527 1527 1528 1530 1532 1534 1537 1539 1543 1546 1550
1534 1534 1534 1533 1533 1532 1532 1531 1531 1530 1530 1529 1529 1528 1528 1528 1527 1527 1527 1527 1526 1523 1521 1521 1522 1522 1522 1522 1522 1522 1522 1522 1522 1522 1523 1524 1525 1527 1529 1532 1535 1538 1542
1532 1532 1531 1531 1530 1530 1529 1528 1528 1527 1527 1526 1526 1525 1524 1524 1524 1523 1523 1523 1522 1521 1518 1517 1518 1518 1518 1518 1518 1517 1517 1517 1517 1517 1517 1517 1519 1520 1522 1524 1527 1530 1533
1529 1529 1528 1528 1527 1527 1526 1525 1525 1524 1523 1523 1522 1521 1520 1520 1519 1519 1519 1518 1518 1517 1514 1513 1513 1513 1513 1513 1513 1513 1512 1512 1512 1512 1512 1512 1512 1513 1515 1516 1519 1521 1525
1526 1526 1525 1524 1524 1523 1523 1522 1521 1520 1520 1519 1518 1517 1516 1516 1515 1514 1514 1513 1513 1512 1511 1508 1508 1508 1508 1508 1507 1507 1507 1507 1506 1506 1506 1506 1506 1507 1508 1510 1511 1513 1516
1523 1522 1522 1521 1521 1520 1519 1518 1517 1516 1515 1515 1514 1513 1512 1511 1510 1509 1508 1508 1507 1507 1506 1504 1502 1502 1502 1502 1502 1501 1501 1501 1500 1500 1500 1500 1500 1501 1501 1503 1504 1506 1508
1519 1519 1518 1518 1517 1516 1515 1514 1513 1512 1511 1510 1509 1508 1507 1506 1504 1503 1502 1502 1501 1501 1500 1499 1498 1497 1497 1497 1497 1496 1495 1495 1495 1495 1495 1494 1495 1495 1495 1496 1497 1499 1501
1516 1515 1514 1514 1513 1512 1511 1510 1509 1507 1506 1505 1504 1503 1502 1500 1499 1498 1497 1496 1495 1495 1494 1493 1493 1492 1492 1491 1491 1491 1490 1489 1489 1489 1489 1489 1489 1489 1489 1490 1490 1492 1494
1512 1511 1510 1509 1508 1507 1506 1505 1504 1503 1502 1500 1499 1498 1496 1495 1493 1492 1491 1490 1489 1489 1488 1487 1487 1486 1486 1486 1486 1485 1485 1484 1483 1485 1484 1483 1483 1482 1483 1484 1484 1485 1487
1508 1507 1506 1504 1503 1502 1502 1501 1499 1498 1497 1495 1494 1492 1490 1489 1488 1486 1485 1484 1483 1483 1483 1482 1480 1480 1480 1480 1480 1480 1479 1479 1478 1478 1478 1476 1477 1477 1477 1478 1478 1479 1480
1503 1502 1501 1500 1498 1498 1497 1496 1494 1493 1491 1490 1488 1487 1485 1483 1482 1480 1479 1478 1477 1476 1476 1475 1474 1474 1474 1474 1474 1474 1473 1472 1472 1472 1473 1471 1471 1471 1471 1471 1472 1473 1473
1498 1497 1496 1495 1493 1492 1492 1490 1489 1487 1486 1484 1483 1481 1479 1478 1476 1475 1473 1471 1470 1470 1470 1469 1468 1467 1467 1467 1467 1467 1466 1466 1464 1465 1467 1466 1464 1465 1464 1464 1465 1466 1467
1493 1492 1490 1489 1488 1487 1486 1485 1484 1482 1480 1479 1477 1475 1474 1472 1470 1469 1467 1466 1464 1463 1463 1462 1461 1461 1460 1460 1460 1460 1460 1459 1458 1457 1459 1460 1460 1460 1458 1458 1459 1459 1460